GW2468 Weather Reports


time (UTC)temp
F
wind
direction
speed
knots
gust
knots
rain 1hr
in
rain 24hr
in
rain mn
in
humidity
%
barometer
mb
20260510083306 49 210 0.0 0.0 0.00 0.00 0.00 99 1011.1
20260510082801 49 210 0.0 0.0 0.00 0.00 0.00 99 1011.0
20260510082258 49 203 0.0 0.0 0.00 0.00 0.00 99 1011.1
20260510081756 49 199 0.0 0.0 0.00 0.00 0.00 99 1011.2
20260510081253 49 199 0.0 0.0 0.00 0.00 0.00 99 1011.2
20260510080749 50 199 0.0 0.0 0.00 0.00 0.00 99 1011.1
20260510080244 50 199 0.0 0.0 0.00 0.00 0.00 99 1011.2
20260510075741 50 198 0.0 0.0 0.00 0.00 0.00 99 1011.3
20260510075239 50 197 0.0 0.0 0.00 0.00 0.00 99 1011.1
20260510074736 50 315 0.0 0.0 0.00 0.00 0.00 99 1011.1
20260510074232 50 323 0.0 0.0 0.00 0.00 0.00 99 1011.4
20260510073728 50 323 0.0 0.0 0.00 0.00 0.00 99 1011.5
20260510073224 50 335 0.0 0.0 0.00 0.00 0.00 99 1012.2
20260510072720 50 335 0.0 0.0 0.00 0.00 0.00 99 1012.0
20260510072217 50 334 0.0 0.0 0.00 0.00 0.00 99 1012.2
20260510071714 50 334 0.0 0.0 0.00 0.00 0.00 99 1012.0
20260510071210 50 335 0.0 0.0 0.00 0.00 0.00 99 1012.1
20260510070708 50 335 0.0 0.0 0.00 0.00 0.00 99 1012.1
20260510070205 50 335 0.0 0.0 0.00 0.00 0.00 99 1012.1
20260510065700 50 335 0.0 0.0 0.00 0.00 0.00 99 1012.1
20260510065157 50 334 0.0 0.0 0.00 0.00 0.00 99 1012.4
20260510064653 50 335 0.0 0.0 0.00 0.00 0.00 99 1012.1
20260510064150 50 335 0.0 0.0 0.00 0.00 0.00 99 1012.1
20260510063648 50 340 0.0 0.0 0.00 0.00 0.00 99 1012.2
20260510063144 50 349 0.0 0.0 0.00 0.00 0.00 99 1012.4
20260510062640 50 311 0.0 0.0 0.00 0.00 0.00 99 1012.5
20260510062136 50 311 0.0 0.0 0.00 0.00 0.00 99 1012.5
20260510061632 50 348 0.0 0.0 0.00 0.00 0.00 99 1012.3
20260510061130 50 205 0.0 0.0 0.00 0.00 0.00 99 1011.5
20260510060625 50 205 0.0 0.0 0.00 0.00 0.00 99 1011.4
20260510060122 50 206 0.0 0.0 0.00 0.00 0.00 99 1011.5
20260510055618 50 205 0.0 0.0 0.00 0.00 0.00 99 1011.5
20260510055117 50 208 0.0 0.0 0.00 0.00 0.00 99 1011.4
20260510054611 50 207 0.0 0.0 0.00 0.00 0.00 99 1011.8
20260510054107 50 206 0.0 0.0 0.00 0.00 0.00 99 1011.8
20260510053607 50 203 0.0 0.0 0.00 0.00 0.00 99 1011.9
20260510053104 50 203 0.0 0.0 0.00 0.00 0.00 99 1011.6
20260510052559 50 202 0.0 0.0 0.00 0.00 0.00 99 1011.6
20260510052056 50 202 0.0 0.0 0.00 0.00 0.00 99 1011.9
20260510051551 50 207 0.0 0.0 0.00 0.00 0.00 99 1011.6
20260510051048 50 207 0.0 0.0 0.00 0.00 0.00 99 1011.8
20260510050540 50 208 0.0 0.0 0.00 0.00 0.00 99 1011.6
20260510050037 50 207 0.0 0.0 0.00 0.00 0.00 99 1011.5
20260510045534 50 183 0.0 0.0 0.00 0.00 0.00 99 1011.4
20260510045030 50 228 0.0 0.0 0.00 0.00 0.00 99 1011.5
20260510044527 50 227 0.0 0.0 0.00 0.00 0.00 99 1011.1
20260510044025 50 219 0.0 0.0 0.00 0.00 0.00 99 1011.4
20260510043520 50 224 0.0 0.0 0.00 0.00 0.00 99 1011.2
20260510043015 50 223 0.0 0.0 0.00 0.00 0.00 99 1010.9
20260510042509 50 197 0.0 0.0 0.00 0.00 0.00 99 1011.1
20260510042004 50 219 0.0 0.0 0.00 0.00 0.00 99 1011.0
20260510041502 50 202 0.0 0.0 0.00 0.00 0.00 99 1011.2
20260510041000 50 199 0.0 0.0 0.00 0.00 0.00 99 1011.5
20260510040456 50 193 0.0 0.0 0.00 0.00 0.00 99 1011.0
20260510035951 50 193 0.0 0.0 0.00 0.37 0.37 99 1011.2
20260510035443 50 193 0.0 0.0 0.00 0.37 0.37 99 1011.2
20260510034942 50 192 0.0 0.0 0.00 0.37 0.37 99 1011.2
20260510034442 50 196 0.0 0.0 0.00 0.37 0.37 99 1011.1
20260510033937 50 194 0.0 0.0 0.00 0.37 0.37 99 1011.0
20260510033433 50 191 0.0 0.0 0.00 0.37 0.37 99 1010.8
20260510032931 50 199 0.0 0.0 0.00 0.37 0.37 99 1011.1
20260510032428 50 196 0.0 0.0 0.00 0.37 0.37 99 1011.2
20260510031922 50 196 0.0 0.0 0.00 0.37 0.37 99 1011.0
20260510031418 50 203 0.0 0.0 0.00 0.37 0.37 99 1011.1
20260510030913 50 204 0.0 0.0 0.00 0.37 0.37 99 1010.9
20260510030410 50 197 0.0 0.0 0.00 0.37 0.37 99 1010.8
20260510025907 50 192 0.0 0.0 0.00 0.37 0.37 99 1010.9
20260510025405 50 193 0.0 0.0 0.00 0.37 0.37 99 1010.9
20260510024902 50 191 0.0 0.0 0.00 0.37 0.37 99 1010.9
20260510024358 50 198 0.0 0.0 0.00 0.37 0.37 99 1010.9
20260510023854 50 196 0.0 0.0 0.00 0.37 0.37 99 1010.9
20260510023350 50 200 0.0 0.0 0.00 0.37 0.37 99 1011.0
20260510022848 50 201 0.0 0.0 0.00 0.37 0.37 99 1010.9
20260510022347 50 200 0.0 0.0 0.00 0.37 0.37 99 1011.2
20260510021846 50 201 0.0 0.0 0.00 0.37 0.37 99 1011.3
20260510021344 50 193 0.0 0.0 0.00 0.37 0.37 99 1011.2
20260510020841 50 198 0.0 0.0 0.00 0.37 0.37 99 1011.2
20260510020341 50 197 0.0 0.0 0.00 0.37 0.37 99 1011.0
20260510015837 50 196 0.0 0.0 0.00 0.37 0.37 99 1011.1
20260510015332 50 196 0.0 0.0 0.00 0.37 0.37 99 1011.0
20260510014828 50 196 0.0 0.0 0.00 0.37 0.37 99 1010.9
20260510014326 50 196 0.0 0.0 0.00 0.37 0.37 99 1010.9
20260510013821 50 196 0.0 0.0 0.00 0.37 0.37 99 1010.9
20260510013317 50 196 0.0 0.0 0.00 0.37 0.37 99 1011.0
20260510012812 50 196 0.0 0.0 0.00 0.37 0.37 99 1011.1
20260510012312 50 196 0.0 0.0 0.00 0.37 0.37 99 1010.9
20260510011807 50 196 0.0 0.0 0.00 0.37 0.37 99 1010.7
20260510011303 50 196 0.0 0.0 0.00 0.37 0.37 99 1010.8
20260510010800 50 196 0.0 0.0 0.00 0.37 0.37 99 1010.6
20260510010256 50 196 0.0 0.0 0.00 0.37 0.37 99 1010.8
20260510005753 50 195 0.0 0.0 0.00 0.37 0.37 99 1010.7
20260510005249 51 196 0.0 0.0 0.00 0.37 0.37 99 1010.9
20260510004748 51 196 0.0 0.0 0.00 0.37 0.37 99 1010.8
20260510004245 51 196 0.0 0.0 0.00 0.37 0.37 99 1010.6
20260510003742 51 196 0.0 0.0 0.00 0.37 0.37 99 1010.4
20260510003239 51 195 0.0 0.0 0.00 0.37 0.37 99 1010.7
20260510002737 52 196 0.0 0.0 0.00 0.37 0.37 99 1010.5
20260510002235 52 196 0.0 0.0 0.00 0.37 0.37 99 1010.4
20260510001731 52 196 0.0 0.0 0.00 0.37 0.37 99 1010.1
20260510001230 52 196 0.0 0.0 0.00 0.37 0.37 99 1010.3
20260510000726 52 196 0.0 0.0 0.00 0.37 0.37 99 1010.1
20260510000226 52 196 0.0 0.0 0.00 0.37 0.37 99 1009.9
20260509235720 52 196 0.0 0.0 0.00 0.37 0.37 99 1010.3
20260509235216 52 195 0.0 0.0 0.00 0.37 0.37 99 1009.9
20260509234712 52 197 0.0 0.0 0.00 0.37 0.37 99 1009.6
20260509234209 52 199 0.0 0.0 0.00 0.37 0.37 99 1009.8
20260509233707 53 198 0.0 0.0 0.00 0.37 0.37 99 1009.8
20260509233159 53 198 0.0 0.0 0.00 0.37 0.37 99 1009.7
20260509232655 53 198 0.0 0.0 0.00 0.37 0.37 98 1009.8
20260509232152 53 198 0.0 0.0 0.00 0.37 0.37 97 1009.5
20260509231648 53 199 0.0 0.0 0.00 0.37 0.37 97 1009.5
20260509231146 53 205 0.0 0.0 0.00 0.37 0.37 97 1009.6
20260509230643 54 195 0.0 0.0 0.00 0.37 0.37 97 1009.6
20260509230140 54 195 0.0 0.0 0.00 0.37 0.37 96 1009.6
20260509225635 54 194 0.0 0.0 0.00 0.37 0.37 96 1009.4
20260509225131 54 196 0.0 0.0 0.00 0.37 0.37 96 1009.4
20260509224626 54 199 0.0 0.0 0.00 0.37 0.37 95 1009.7
20260509224124 55 201 0.0 0.0 0.00 0.37 0.37 96 1009.6
20260509223621 55 201 0.0 0.0 0.00 0.37 0.37 95 1009.7
20260509223118 54 200 0.0 0.0 0.00 0.37 0.37 95 1010.0
20260509222614 54 199 0.0 0.0 0.00 0.37 0.37 96 1009.6
20260509222110 54 204 0.0 0.0 0.00 0.37 0.37 96 1009.7
20260509221606 54 240 0.0 0.0 0.00 0.37 0.37 97 1009.9
20260509221102 54 240 0.0 0.0 0.00 0.37 0.37 97 1009.7
20260509220558 54 240 0.0 0.0 0.00 0.37 0.37 98 1010.0
20260509220055 53 240 0.0 0.0 0.00 0.37 0.37 98 1009.9
20260509215550 53 231 0.0 0.0 0.00 0.37 0.37 98 1009.8
20260509215048 53 230 0.0 0.0 0.00 0.37 0.37 99 1010.2
20260509214545 53 195 0.0 0.0 0.00 0.37 0.37 99 1010.2
20260509214042 53 234 0.0 0.0 0.00 0.37 0.37 99 1010.1
20260509213538 53 238 0.0 0.0 0.00 0.37 0.37 99 1010.2
20260509213035 53 254 0.0 0.0 0.00 0.37 0.37 99 1010.0
20260509212532 52 240 0.0 0.0 0.00 0.37 0.37 99 1010.3
20260509212029 52 232 0.0 0.0 0.00 0.37 0.37 99 1010.0
20260509211524 52 245 0.0 0.0 0.00 0.37 0.37 99 1010.2
20260509211021 51 257 0.0 0.0 0.00 0.37 0.37 99 1010.2
20260509210518 51 257 0.0 0.0 0.00 0.37 0.37 99 1010.0
20260509210014 51 257 0.0 0.0 0.00 0.37 0.37 99 1010.1
20260509205509 51 257 0.0 0.0 0.00 0.37 0.37 99 1010.1
20260509205005 50 197 0.0 0.0 0.00 0.37 0.37 99 1010.1
20260509204501 50 196 0.0 0.0 0.00 0.37 0.37 99 1010.1
20260509203957 50 216 0.0 0.0 0.00 0.37 0.37 99 1010.3
20260509203453 50 216 0.0 0.0 0.07 0.37 0.37 99 1010.3
20260509202951 50 230 0.0 0.0 0.07 0.37 0.37 99 1010.3
20260509202447 50 230 0.0 0.0 0.07 0.37 0.37 99 1010.5
20260509201942 50 229 0.0 0.0 0.07 0.36 0.36 99 1010.3
20260509201437 51 229 0.0 0.0 0.07 0.36 0.36 99 1010.6
20260509200935 51 229 0.0 0.0 0.05 0.35 0.35 99 1010.5
20260509200434 51 227 0.0 0.0 0.05 0.35 0.35 99 1010.4
20260509195931 51 251 0.0 0.0 0.00 0.34 0.34 99 1010.5
20260509195421 51 250 0.0 0.0 0.00 0.34 0.34 99 1010.6
20260509194914 50 251 0.0 0.0 0.00 0.34 0.34 99 1010.8
20260509194411 50 234 0.0 0.0 0.00 0.34 0.34 99 1010.9
20260509193908 50 196 0.0 0.0 0.00 0.34 0.34 99 1010.8
20260509193407 50 196 0.0 0.0 0.00 0.34 0.34 99 1011.3
20260509192903 50 196 0.0 0.0 0.07 0.34 0.34 99 1011.0
20260509192400 50 202 0.0 0.0 0.07 0.34 0.34 99 1011.1
20260509191855 50 212 0.0 0.0 0.12 0.34 0.34 99 1011.1
20260509191351 50 213 0.0 0.0 0.12 0.33 0.33 99 1011.2
20260509190847 50 228 0.0 0.0 0.07 0.32 0.32 99 1011.4
20260509190344 50 233 0.0 0.0 0.05 0.31 0.31 99 1011.3
20260509185842 50 256 0.0 0.0 0.05 0.31 0.31 99 1011.4
20260509185338 50 229 0.0 0.0 0.00 0.30 0.30 99 1011.4
20260509184836 50 229 0.0 0.0 0.07 0.30 0.30 99 1011.4
20260509184332 50 235 0.0 0.0 0.07 0.30 0.30 99 1011.6
20260509183829 50 222 0.0 0.0 0.05 0.29 0.29 99 1011.5
20260509183324 50 225 0.0 0.0 0.12 0.29 0.29 99 1011.4
20260509182821 50 214 0.0 0.0 0.12 0.28 0.28 99 1011.4
20260509182318 50 236 0.0 0.0 0.12 0.27 0.27 99 1011.4
20260509181815 50 220 0.0 0.0 0.07 0.26 0.26 99 1011.6
20260509181313 51 230 0.0 0.0 0.05 0.25 0.25 99 1011.3
20260509180810 50 225 0.0 0.0 0.19 0.25 0.25 99 1011.6
20260509180306 50 221 0.0 0.0 0.19 0.24 0.24 99 1011.4
20260509175802 51 214 0.0 0.0 0.12 0.23 0.23 99 1011.6
20260509175259 51 234 0.0 0.0 0.12 0.22 0.22 99 1011.8
20260509174754 51 211 0.0 0.0 0.12 0.21 0.21 99 1011.8
20260509174250 51 220 0.0 0.0 0.05 0.20 0.20 99 1011.6
20260509173746 51 220 0.0 0.0 0.07 0.19 0.19 99 1011.6
20260509173242 51 217 0.0 0.0 0.07 0.19 0.19 99 1011.4
20260509172738 51 202 0.0 0.0 0.00 0.18 0.18 99 1011.5
20260509172235 51 226 0.0 0.0 0.05 0.18 0.18 99 1011.4
20260509171731 51 223 0.0 0.0 0.05 0.18 0.18 99 1011.4
20260509171227 51 230 0.0 0.0 0.00 0.17 0.17 99 1011.2
20260509170724 51 234 0.0 0.0 0.00 0.17 0.17 99 1011.5
20260509170220 50 224 0.0 0.0 0.07 0.17 0.17 99 1011.4
20260509165718 51 227 0.0 0.0 0.07 0.17 0.17 99 1011.4
20260509165214 50 229 0.0 0.0 0.00 0.16 0.16 99 1011.6
20260509164710 50 235 0.0 0.0 0.00 0.16 0.16 99 1011.9
20260509164206 50 212 0.0 0.0 0.05 0.16 0.16 99 1011.6
20260509163703 50 219 0.0 0.0 0.05 0.16 0.16 99 1011.6
20260509163200 50 169 0.0 0.0 0.00 0.15 0.15 99 1011.5
20260509162657 50 235 0.0 0.0 0.00 0.15 0.15 99 1011.5
20260509162153 50 189 0.0 0.0 0.00 0.15 0.15 99 1011.8
20260509161649 50 282 0.0 0.0 0.00 0.15 0.15 99 1011.9
20260509161144 51 283 0.0 0.0 0.00 0.15 0.15 99 1011.9
20260509160640 51 283 0.0 0.0 0.00 0.15 0.15 99 1011.9
20260509160135 50 283 0.0 0.0 0.00 0.15 0.15 99 1011.9
20260509155632 50 283 0.0 0.0 0.00 0.15 0.15 99 1011.8
20260509155128 50 284 0.0 0.0 0.00 0.15 0.15 99 1011.5
20260509154624 50 287 0.0 0.0 0.00 0.15 0.15 99 1011.6
20260509154121 50 286 0.0 0.0 0.00 0.15 0.15 99 1012.0
20260509153618 50 287 0.0 0.0 0.00 0.15 0.15 99 1011.8
20260509153115 50 287 0.0 0.0 0.00 0.15 0.15 99 1012.2
20260509152611 50 287 0.0 0.0 0.07 0.15 0.15 99 1012.1
20260509152109 50 287 0.0 0.0 0.07 0.15 0.15 99 1012.4
20260509151604 49 287 0.0 0.0 0.00 0.14 0.14 99 1012.2
20260509151103 50 287 0.0 0.0 0.00 0.14 0.14 99 1012.3
20260509150600 50 288 0.0 0.0 0.05 0.14 0.14 99 1012.5
20260509150058 49 288 0.0 0.0 0.05 0.14 0.14 99 1012.4
20260509145554 49 288 0.0 0.0 0.00 0.13 0.13 99 1012.2
20260509145049 49 288 0.0 0.0 0.07 0.13 0.13 99 1012.2
20260509144546 49 288 0.0 0.0 0.07 0.13 0.13 99 1012.5
20260509144043 49 288 0.0 0.0 0.07 0.13 0.13 99 1012.3
20260509143540 49 289 0.0 0.0 0.00 0.12 0.12 99 1012.2
20260509143032 49 289 0.0 0.0 0.00 0.12 0.12 99 1012.3
20260509142527 49 289 0.0 0.0 0.00 0.12 0.12 99 1012.1
20260509142023 49 292 0.0 0.0 0.05 0.12 0.12 99 1012.1
20260509141520 49 294 0.0 0.0 0.05 0.12 0.12 99 1011.9
20260509141017 49 291 0.0 0.0 0.00 0.11 0.11 99 1012.1
20260509140513 49 286 0.0 0.0 0.00 0.11 0.11 99 1012.0
20260509140012 48 287 0.0 0.0 0.00 0.11 0.11 99 1012.0
20260509135508 48 287 0.0 0.0 0.00 0.11 0.11 99 1012.0
20260509135006 48 287 0.0 0.0 0.00 0.11 0.11 99 1012.1
20260509134503 48 287 0.0 0.0 0.00 0.11 0.11 99 1011.8
20260509134001 48 287 0.0 0.0 0.00 0.11 0.11 99 1011.9
20260509133457 48 288 0.0 0.0 0.00 0.11 0.11 99 1011.9
20260509132955 48 290 0.0 0.0 0.07 0.11 0.11 99 1012.2
20260509132453 48 290 0.0 0.0 0.07 0.11 0.11 99 1012.2
20260509131950 48 290 0.0 0.0 0.00 0.10 0.10 99 1012.2
20260509131447 47 290 0.0 0.0 0.00 0.10 0.10 99 1012.4
20260509130943 48 290 0.0 0.0 0.00 0.10 0.10 99 1012.2
20260509130439 47 290 0.0 0.0 0.00 0.10 0.10 99 1012.6
20260509125936 47 292 0.0 0.0 0.00 0.10 0.10 99 1012.3
20260509125433 47 294 0.0 0.0 0.00 0.10 0.10 99 1012.2
20260509124929 47 294 0.0 0.0 0.00 0.10 0.10 99 1012.2
20260509124426 47 295 0.0 0.0 0.00 0.10 0.10 99 1012.2
20260509123923 47 296 0.0 0.0 0.00 0.10 0.10 99 1012.1
20260509123420 47 296 0.0 0.0 0.00 0.10 0.10 99 1012.1
20260509122916 47 298 0.0 0.0 0.00 0.10 0.10 99 1012.4
20260509122413 47 299 0.0 0.0 0.00 0.10 0.10 99 1012.3
20260509121910 47 299 0.0 0.0 0.00 0.10 0.10 99 1012.3
20260509121407 47 301 0.0 0.0 0.00 0.10 0.10 99 1012.4
20260509120905 47 301 0.0 0.0 0.00 0.10 0.10 99 1012.3
20260509120402 47 302 0.0 0.0 0.00 0.10 0.10 99 1012.1
20260509115900 47 302 0.0 0.0 0.00 0.10 0.10 99 1011.9
20260509115357 47 302 0.0 0.0 0.00 0.10 0.10 99 1012.0
20260509114855 46 302 0.0 0.0 0.00 0.10 0.10 99 1012.0
20260509114354 46 302 0.0 0.0 0.00 0.10 0.10 99 1012.1
20260509113852 46 302 0.0 0.0 0.07 0.10 0.10 99 1012.0
20260509113349 46 302 0.0 0.0 0.07 0.10 0.10 99 1012.2
20260509112846 46 302 0.0 0.0 0.00 0.09 0.09 99 1012.2
20260509112343 46 302 0.0 0.0 0.00 0.09 0.09 99 1012.0
20260509111840 46 302 0.0 0.0 0.00 0.09 0.09 99 1012.1
20260509111337 46 302 0.0 0.0 0.00 0.09 0.09 99 1012.1
20260509110835 46 301 0.0 0.0 0.00 0.09 0.09 99 1012.0
20260509110331 46 301 0.0 0.0 0.00 0.09 0.09 99 1012.4
20260509105829 46 302 0.0 0.0 0.00 0.09 0.09 99 1012.2
20260509105327 45 302 0.0 0.0 0.05 0.09 0.09 99 1012.4
20260509104823 45 301 0.0 0.0 0.05 0.09 0.09 99 1012.4
20260509104320 45 301 0.0 0.0 0.00 0.08 0.08 99 1012.4
20260509103818 45 301 0.0 0.0 0.00 0.08 0.08 99 1012.3
20260509103315 45 301 0.0 0.0 0.00 0.08 0.08 99 1012.3
20260509102814 45 301 0.0 0.0 0.00 0.08 0.08 99 1012.4
20260509102310 45 302 0.0 0.0 0.00 0.08 0.08 99 1012.3
20260509101806 45 302 0.0 0.0 0.00 0.08 0.08 99 1012.0
20260509101303 45 302 0.0 0.0 0.00 0.08 0.08 99 1012.1
20260509100800 45 302 0.0 0.0 0.00 0.08 0.08 99 1012.1
20260509100257 45 302 0.0 0.0 0.00 0.08 0.08 99 1012.2
20260509095754 45 302 0.0 0.0 0.00 0.08 0.08 99 1012.1
20260509095251 45 302 0.0 0.0 0.00 0.08 0.08 99 1012.3
20260509094748 45 302 0.0 0.0 0.00 0.08 0.08 99 1012.4
20260509094245 45 302 0.0 0.0 0.00 0.08 0.08 99 1012.3
20260509093743 45 302 0.0 0.0 0.00 0.08 0.08 99 1012.5
20260509093240 45 302 0.0 0.0 0.00 0.08 0.08 99 1012.5
20260509092738 45 302 0.0 0.0 0.00 0.08 0.08 99 1012.2
20260509092236 45 302 0.0 0.0 0.00 0.08 0.08 99 1012.6
20260509091734 45 302 0.0 0.0 0.00 0.08 0.08 99 1012.5
20260509091229 45 302 0.0 0.0 0.00 0.08 0.08 99 1012.4
20260509090727 45 302 0.0 0.0 0.00 0.08 0.08 99 1012.8
20260509090224 45 302 0.0 0.0 0.00 0.08 0.08 99 1012.7
20260509085722 45 302 0.0 0.0 0.00 0.08 0.08 99 1012.6
20260509085219 45 302 0.0 0.0 0.00 0.08 0.08 99 1012.7
20260509084716 45 302 0.0 0.0 0.00 0.08 0.08 99 1012.6
20260509084212 45 302 0.0 0.0 0.00 0.08 0.08 99 1012.7
20260509083711 45 301 0.0 0.0 0.00 0.08 0.08 99 1012.6